EW5123 Weather Reports


time (UTC)temp
C
wind
direction
speed
KPH
gust
KPH
rain 1hr
cm
rain 24hr
cm
rain mn
cm
humidity
%
barometer
mb
20260903075309 12 217 0.0 0.0 0.00 0.00 0.00 76 983.4
20260903074809 12 220 0.0 0.0 0.00 0.00 0.00 76 983.5
20260903074309 12 108 0.0 0.0 0.00 0.00 0.00 75 983.4
20260903073811 12 204 0.0 0.0 0.00 0.00 0.00 75 983.4
20260903073309 12 213 0.0 0.0 0.00 0.00 0.00 74 983.5
20260903072809 12 213 0.0 0.0 0.00 0.00 0.00 74 983.5
20260903072313 13 213 0.0 0.0 0.00 0.00 0.00 72 983.5
20260903072309 13 213 0.0 0.0 0.00 0.00 0.00 73 983.5
20260903071312 13 213 0.0 0.0 0.00 0.00 0.00 70 983.8
20260903071308 13 213 0.0 0.0 0.00 0.00 0.00 71 983.7
20260903070307 14 213 0.0 0.0 0.00 0.00 0.00 69 983.8
20260903065807 14 213 0.0 0.0 0.00 0.00 0.00 67 983.8
20260903065307 14 213 0.0 0.0 0.00 0.00 0.00 66 983.8
20260903064811 14 212 0.0 0.0 0.00 0.00 0.00 68 983.7
20260903064807 14 213 0.0 0.0 0.00 0.00 0.00 68 983.8
20260903063806 14 165 0.0 0.0 0.00 0.00 0.00 68 983.8
20260903063306 14 164 0.0 0.0 0.00 0.00 0.00 68 983.8
20260903062806 14 160 0.0 0.0 0.00 0.00 0.00 68 983.8
20260903062306 15 182 0.0 0.0 0.00 0.00 0.00 66 983.8
20260903061805 15 184 0.0 0.0 0.00 0.00 0.00 64 983.7
20260903061307 16 184 0.0 0.0 0.00 0.00 0.00 62 983.8
20260903060805 16 184 0.0 0.0 0.00 0.00 0.00 60 983.9
20260903060305 16 184 0.0 1.6 0.00 0.00 0.00 59 984.0
20260903055809 16 198 0.0 3.2 0.00 0.00 0.00 60 983.8
20260903055805 16 208 0.0 1.6 0.00 0.00 0.00 59 983.9
20260903054804 16 224 0.0 3.2 0.00 0.00 0.00 60 983.8
20260903054302 16 245 0.0 1.6 0.00 0.00 0.00 61 983.9
20260903053802 16 212 0.0 1.6 0.00 0.00 0.00 62 983.9
20260903053306 16 222 0.0 0.0 0.00 0.00 0.00 61 983.9
20260903053302 15 214 0.0 0.0 0.00 0.00 0.00 63 984.0
20260903052307 16 222 0.0 0.0 0.00 0.00 0.00 59 983.9
20260903051302 17 222 0.0 1.6 0.00 0.00 0.00 58 984.0
20260903050802 17 187 0.0 3.2 0.00 0.00 0.00 57 984.0
20260903050305 17 290 0.0 3.2 0.00 0.00 0.00 57 984.1
20260903050301 17 198 0.0 3.2 0.00 0.00 0.00 57 984.1
20260903045300 16 137 0.0 0.0 0.00 0.00 0.00 59 984.1
20260903044800 17 127 0.0 0.0 0.00 0.00 0.00 57 984.0
20260903044300 17 8 0.0 0.0 0.00 0.00 0.00 55 984.1
20260903043805 18 8 0.0 0.0 0.00 0.00 0.00 53 984.1
20260903043800 17 9 0.0 0.0 0.00 0.00 0.00 55 984.1
20260903042758 18 2 0.0 0.0 0.00 0.00 0.00 52 984.1
20260903042259 18 348 0.0 0.0 0.00 0.00 0.00 51 984.1
20260903041757 18 348 0.0 0.0 0.00 0.00 0.00 51 984.1
20260903041300 19 353 0.0 1.6 0.00 0.00 0.00 51 984.1
20260903041256 18 348 0.0 0.0 0.00 0.00 0.00 51 984.0
20260903040859 19 353 0.0 1.6 0.00 0.00 0.00 51 984.1
20260903035758 19 223 0.0 0.0 0.00 0.00 0.00 49 984.0
20260903035754 19 340 0.0 1.6 0.00 0.00 0.00 50 984.1
20260903034758 20 217 0.0 0.0 0.00 0.00 0.00 48 983.9
20260903034754 20 223 0.0 0.0 0.00 0.00 0.00 48 983.9
20260903033754 20 237 0.0 3.2 0.00 0.00 0.00 46 983.9
20260903033254 20 297 0.0 6.4 0.00 0.00 0.00 45 983.9
20260903032754 21 292 1.6 11.3 0.00 0.00 0.00 44 983.7
20260903032253 21 291 1.6 11.3 0.00 0.00 0.00 42 983.5
20260903031754 21 356 0.0 4.8 0.00 0.00 0.00 42 983.5
20260903031254 21 294 0.0 8.0 0.00 0.00 0.00 41 983.5
20260903030754 21 331 1.6 8.0 0.00 0.00 0.00 41 983.5
20260903030253 22 5 3.2 11.3 0.00 0.00 0.00 41 983.4
20260903025754 22 14 4.8 12.9 0.00 0.00 0.00 40 983.4
20260903025258 22 332 6.4 16.1 0.00 0.00 0.00 39 983.2
20260903025254 22 329 6.4 16.1 0.00 0.00 0.00 39 983.4
20260903024254 22 11 8.0 19.3 0.00 0.00 0.00 38 983.2
20260903023754 22 323 9.7 19.3 0.00 0.00 0.00 37 983.1
20260903023257 23 345 3.2 17.7 0.00 0.00 0.00 38 982.8
20260903023253 22 333 6.4 19.3 0.00 0.00 0.00 37 983.1
20260903022254 23 355 1.6 9.7 0.00 0.00 0.00 40 982.6
20260903021758 23 208 0.0 6.4 0.00 0.00 0.00 38 982.2
20260903021754 23 323 0.0 8.0 0.00 0.00 0.00 40 982.4
20260903020757 23 303 0.0 3.2 0.00 0.00 0.00 34 981.9
20260903020753 23 301 0.0 6.4 0.00 0.00 0.00 37 982.0
20260903015754 23 342 0.0 3.2 0.00 0.00 0.00 35 981.8
20260903015257 23 205 0.0 0.0 0.00 0.00 0.00 38 981.7
20260903015253 23 301 0.0 1.6 0.00 0.00 0.00 37 981.8
20260903014251 24 203 0.0 3.2 0.00 0.00 0.00 37 981.7
20260903013753 24 204 0.0 11.3 0.00 0.00 0.00 38 981.8
20260903013252 25 110 4.8 14.5 0.00 0.00 0.00 33 982.1
20260903012755 25 193 1.6 9.7 0.00 0.00 0.00 34 981.8
20260903012751 25 110 4.8 14.5 0.00 0.00 0.00 35 981.9
20260903012246 25 194 1.6 8.0 0.00 0.00 0.00 33 981.4
20260903011851 25 206 0.0 6.4 0.00 0.00 0.00 34 981.4
20260903010745 25 217 1.6 8.0 0.00 0.00 0.00 33 981.3
20260903010250 26 212 0.0 3.2 0.00 0.00 0.00 29 981.3
20260903010246 25 255 1.6 8.0 0.00 0.00 0.00 31 981.3
20260903005851 26 212 0.0 3.2 0.00 0.00 0.00 28 981.4
20260903004743 26 219 0.0 1.6 0.00 0.00 0.00 28 981.3
20260903004244 26 238 0.0 3.2 0.00 0.00 0.00 27 981.3
20260903003748 26 233 1.6 8.0 0.00 0.00 0.00 25 981.3
20260903003743 26 293 0.0 6.4 0.00 0.00 0.00 26 981.3
20260903002741 26 203 3.2 8.0 0.00 0.00 0.00 25 981.2
20260903002241 27 193 4.8 12.9 0.00 0.00 0.00 25 981.1
20260903001241 27 191 6.4 12.9 0.00 0.00 0.00 24 981.1
20260903000741 28 203 8.0 12.9 0.00 0.00 0.00 23 980.9
20260903000241 28 167 6.4 16.1 0.00 0.00 0.00 23 980.9
20260902235739 29 156 8.0 20.9 0.00 0.00 0.00 23 980.8
20260902235241 30 184 9.7 20.9 0.00 0.00 0.00 22 980.9
20260902234739 30 175 6.4 19.3 0.00 0.00 0.00 22 980.9
20260902234239 31 215 1.6 19.3 0.00 0.00 0.00 21 980.8
20260902233739 31 171 1.6 8.0 0.00 0.00 0.00 21 980.9
20260902233243 31 212 1.6 6.4 0.00 0.00 0.00 19 980.9
20260902233239 31 179 1.6 8.0 0.00 0.00 0.00 20 980.9
20260902232239 31 165 3.2 9.7 0.00 0.00 0.00 20 981.1
20260902231739 31 131 3.2 14.5 0.00 0.00 0.00 21 981.1
20260902231238 31 145 3.2 14.5 0.00 0.00 0.00 21 981.2
20260902230737 31 182 0.0 8.0 0.00 0.00 0.00 19 981.1
20260902230238 31 143 0.0 11.3 0.00 0.00 0.00 21 981.1
20260902225737 31 94 0.0 11.3 0.00 0.00 0.00 20 981.2
20260902225241 28 139 3.2 14.5 0.00 0.00 0.00 24 981.3
20260902225237 30 149 0.0 4.8 0.00 0.00 0.00 22 981.3
20260902224237 28 356 3.2 14.5 0.00 0.00 0.00 24 981.3
20260902223737 29 321 1.6 14.5 0.00 0.00 0.00 26 981.4
20260902223237 28 168 0.0 11.3 0.00 0.00 0.00 26 981.5
20260902222737 28 353 1.6 4.8 0.00 0.00 0.00 26 981.4
20260902222239 28 299 1.6 6.4 0.00 0.00 0.00 26 981.7
20260902222235 29 263 1.6 8.0 0.00 0.00 0.00 26 981.7
20260902221840 30 294 1.6 8.0 0.00 0.00 0.00 25 981.9
20260902220735 30 311 0.0 4.8 0.00 0.00 0.00 25 982.0
20260902220235 30 90 1.6 9.7 0.00 0.00 0.00 26 982.0
20260902215735 29 317 1.6 9.7 0.00 0.00 0.00 28 982.0
20260902215235 28 357 1.6 6.4 0.00 0.00 0.00 29 982.1
20260902214735 28 297 1.6 9.7 0.00 0.00 0.00 29 982.2
20260902214234 27 1 1.6 9.7 0.00 0.00 0.00 30 982.2
20260902213735 27 274 3.2 12.9 0.00 0.00 0.00 30 982.4
20260902213235 27 2 3.2 14.5 0.00 0.00 0.00 29 982.5
20260902212733 27 347 1.6 14.5 0.00 0.00 0.00 29 982.6
20260902212233 27 335 1.6 14.5 0.00 0.00 0.00 29 982.5
20260902211734 27 86 3.2 14.5 0.00 0.00 0.00 29 982.7
20260902211233 27 46 3.2 16.1 0.00 0.00 0.00 29 982.7
20260902210731 28 321 4.8 17.7 0.00 0.00 0.00 28 982.7
20260902210231 28 317 4.8 25.7 0.00 0.00 0.00 28 982.7
20260902205731 28 11 3.2 25.7 0.00 0.00 0.00 27 982.8
20260902205237 28 339 3.2 20.9 0.00 0.00 0.00 27 983.0
20260902205232 28 309 3.2 17.7 0.00 0.00 0.00 27 983.0
20260902204234 29 351 3.2 17.7 0.00 0.00 0.00 26 983.1
20260902204230 29 283 3.2 20.9 0.00 0.00 0.00 27 983.0
20260902203727 28 332 3.2 14.5 0.00 0.00 0.00 27 983.1
20260902202727 28 357 1.6 8.0 0.00 0.00 0.00 25 983.0
20260902202226 29 292 0.0 6.4 0.00 0.00 0.00 25 983.0
20260902201727 30 188 0.0 6.4 0.00 0.00 0.00 24 983.2
20260902201227 30 117 1.6 9.7 0.00 0.00 0.00 21 983.1
20260902200727 30 148 1.6 9.7 0.00 0.00 0.00 20 983.2
20260902200226 30 219 1.6 11.3 0.00 0.00 0.00 24 983.1
20260902195725 28 299 6.4 24.1 0.00 0.00 0.00 23 983.1
20260902195230 28 49 11.3 25.7 0.00 0.00 0.00 25 983.2
20260902194725 27 340 11.3 25.7 0.00 0.00 0.00 25 983.3
20260902194229 27 30 3.2 16.1 0.00 0.00 0.00 26 983.4
20260902194224 27 354 8.0 19.3 0.00 0.00 0.00 25 983.3
20260902193224 27 1 3.2 9.7 0.00 0.00 0.00 26 983.5
20260902192725 27 323 4.8 14.5 0.00 0.00 0.00 26 983.5
20260902192224 27 320 6.4 14.5 0.00 0.00 0.00 25 983.7
20260902191725 28 313 6.4 33.8 0.00 0.00 0.00 25 983.5
20260902191224 27 338 4.8 33.8 0.00 0.00 0.00 25 983.4
20260902190725 28 252 1.6 8.0 0.00 0.00 0.00 24 983.9
20260902190225 29 319 1.6 9.7 0.00 0.00 0.00 22 984.0
20260902185725 30 289 1.6 9.7 0.00 0.00 0.00 23 984.0
20260902185225 29 322 1.6 9.7 0.00 0.00 0.00 24 984.1
20260902184725 28 6 1.6 9.7 0.00 0.00 0.00 24 984.3
20260902184224 28 312 1.6 6.4 0.00 0.00 0.00 24 984.4
20260902183725 28 329 1.6 11.3 0.00 0.00 0.00 25 984.4
20260902183224 28 293 1.6 11.3 0.00 0.00 0.00 23 984.4
20260902182725 29 356 1.6 8.0 0.00 0.00 0.00 23 984.6
20260902182228 28 347 0.0 4.8 0.00 0.00 0.00 24 984.8
20260902182224 29 328 0.0 8.0 0.00 0.00 0.00 24 984.7
20260902181831 28 285 0.0 4.8 0.00 0.00 0.00 25 985.0
20260902181330 27 11 0.0 4.8 0.00 0.00 0.00 25 985.1
20260902180830 26 354 3.2 12.9 0.00 0.00 0.00 25 985.2
20260902175727 27 321 3.2 11.3 0.00 0.00 0.00 25 985.2
20260902175723 26 323 4.8 12.9 0.00 0.00 0.00 26 985.2
20260902174723 27 35 1.6 6.4 0.00 0.00 0.00 25 985.2
20260902174223 27 339 1.6 6.4 0.00 0.00 0.00 24 985.3
20260902173723 27 5 0.0 6.4 0.00 0.00 0.00 26 985.4
20260902173222 27 111 3.2 11.3 0.00 0.00 0.00 26 985.6
20260902172720 26 210 3.2 11.3 0.00 0.00 0.00 26 985.6
20260902172221 26 272 1.6 9.7 0.00 0.00 0.00 26 985.6
20260902171720 26 325 1.6 6.4 0.00 0.00 0.00 25 985.7
20260902171221 26 335 1.6 9.7 0.00 0.00 0.00 25 985.7
20260902170720 26 315 3.2 12.9 0.00 0.00 0.00 26 985.8
20260902170225 26 179 1.6 12.9 0.00 0.00 0.00 25 985.9
20260902170220 26 193 3.2 12.9 0.00 0.00 0.00 26 985.8
20260902165223 26 221 3.2 14.5 0.00 0.00 0.00 26 985.9
20260902165218 26 123 4.8 14.5 0.00 0.00 0.00 26 985.8
20260902164824 26 314 3.2 14.5 0.00 0.00 0.00 26 985.9
20260902163719 26 229 3.2 14.5 0.00 0.00 0.00 25 985.8
20260902163218 26 128 3.2 9.7 0.00 0.00 0.00 26 985.8
20260902162719 26 205 1.6 9.7 0.00 0.00 0.00 25 985.8
20260902162222 25 110 3.2 9.7 0.00 0.00 0.00 27 985.9
20260902162218 26 217 3.2 9.7 0.00 0.00 0.00 25 985.8
20260902161217 25 304 1.6 8.0 0.00 0.00 0.00 27 985.9
20260902160718 25 226 3.2 9.7 0.00 0.00 0.00 28 985.9
20260902160218 25 197 3.2 9.7 0.00 0.00 0.00 28 986.0
20260902155718 25 196 1.6 8.0 0.00 0.00 0.00 28 986.0
20260902155221 24 89 1.6 9.7 0.00 0.00 0.00 28 986.0
20260902154716 24 203 1.6 9.7 0.00 0.00 0.00 28 986.1
20260902154221 24 217 1.6 6.4 0.00 0.00 0.00 30 986.1
20260902154217 24 219 1.6 9.7 0.00 0.00 0.00 28 986.1
20260902153214 24 184 1.6 6.4 0.00 0.00 0.00 29 986.1
20260902152714 23 145 1.6 4.8 0.00 0.00 0.00 30 986.3
20260902152214 23 214 1.6 4.8 0.00 0.00 0.00 31 986.3
20260902151714 23 154 1.6 6.4 0.00 0.00 0.00 30 986.3
20260902151214 23 205 0.0 6.4 0.00 0.00 0.00 30 986.3
20260902150714 22 201 0.0 3.2 0.00 0.00 0.00 31 986.1
20260902150214 22 235 0.0 3.2 0.00 0.00 0.00 34 986.3
20260902145719 21 216 0.0 4.8 0.00 0.00 0.00 35 986.4
20260902145714 21 216 0.0 4.8 0.00 0.00 0.00 34 986.4
20260902144718 20 214 0.0 4.8 0.00 0.00 0.00 37 986.4
20260902144713 20 188 1.6 4.8 0.00 0.00 0.00 38 986.4
20260902143712 19 130 1.6 4.8 0.00 0.00 0.00 40 986.3
20260902143212 19 202 0.0 4.8 0.00 0.00 0.00 45 986.4
20260902142716 17 228 0.0 1.6 0.00 0.00 0.00 50 986.3
20260902142712 18 258 0.0 3.2 0.00 0.00 0.00 44 986.3
20260902141717 15 191 0.0 3.2 0.00 0.00 0.00 65 986.0
20260902141712 16 192 0.0 3.2 0.00 0.00 0.00 57 986.3
20260902141322 14 146 0.0 3.2 0.00 0.00 0.00 67 986.0
20260902141212 16 167 0.0 3.2 0.00 0.00 0.00 60 986.1
20260902135711 14 157 0.0 1.6 0.00 0.00 0.00 70 986.0
20260902135210 13 151 0.0 1.6 0.00 0.00 0.00 72 986.0
20260902134710 13 138 0.0 1.6 0.00 0.00 0.00 73 986.1
20260902134210 12 134 0.0 1.6 0.00 0.00 0.00 71 986.1
20260902133710 12 134 0.0 0.0 0.00 0.00 0.00 70 986.1
20260902133210 12 134 0.0 0.0 0.00 0.00 0.00 71 986.0
20260902132712 12 134 0.0 1.6 0.00 0.00 0.00 72 985.9
20260902132209 12 134 0.0 1.6 0.00 0.00 0.00 76 985.9
20260902131710 11 160 0.0 1.6 0.00 0.00 0.00 77 985.9
20260902131210 11 156 0.0 0.0 0.00 0.00 0.00 78 985.9
20260902130713 11 133 0.0 0.0 0.00 0.00 0.00 78 985.8
20260902130708 10 133 0.0 0.0 0.00 0.00 0.00 78 985.7
20260902125708 10 133 0.0 0.0 0.00 0.00 0.00 76 985.7
20260902125207 11 103 0.0 0.0 0.00 0.00 0.00 76 985.7
20260902124706 10 23 0.0 1.6 0.00 0.00 0.00 77 985.6
20260902124206 10 338 0.0 1.6 0.00 0.00 0.00 76 985.6
20260902123706 11 337 0.0 1.6 0.00 0.00 0.00 75 985.4
20260902123207 10 140 0.0 0.0 0.00 0.00 0.00 77 985.3
20260902122705 10 152 0.0 0.0 0.00 0.00 0.00 78 985.2
20260902122204 10 152 0.0 0.0 0.00 0.00 0.00 78 985.2
20260902121704 10 122 0.0 0.0 0.00 0.00 0.00 77 985.2
20260902121208 11 122 0.0 1.6 0.00 0.00 0.00 76 985.1
20260902121204 10 122 0.0 0.0 0.00 0.00 0.00 76 985.1
20260902120204 11 122 0.0 1.6 0.00 0.00 0.00 76 985.1
20260902115707 11 172 0.0 0.0 0.00 0.00 0.00 76 985.1
20260902115703 11 172 0.0 0.0 0.00 0.00 0.00 76 985.0
20260902114704 11 172 0.0 0.0 0.00 0.00 0.00 77 985.0
20260902114203 11 172 0.0 1.6 0.00 0.00 0.00 77 985.0
20260902113704 11 172 0.0 1.6 0.00 0.00 0.00 77 985.0
20260902113204 11 198 0.0 0.0 0.00 0.00 0.00 77 984.8
20260902112701 11 198 0.0 0.0 0.00 0.00 0.00 76 984.8
20260902112202 11 198 0.0 0.0 0.00 0.00 0.00 75 984.8
20260902111205 12 198 0.0 0.0 0.00 0.00 0.00 73 985.0
20260902111201 12 198 0.0 0.0 0.00 0.00 0.00 74 985.0
20260902110202 12 198 0.0 0.0 0.00 0.00 0.00 72 984.8
20260902105701 13 198 0.0 0.0 0.00 0.00 0.00 72 985.0
20260902105202 13 198 0.0 0.0 0.00 0.00 0.00 71 985.0
20260902104702 13 198 0.0 1.6 0.00 0.00 0.00 71 985.0
20260902104205 12 200 0.0 1.6 0.00 0.00 0.00 74 985.0
20260902104201 13 196 0.0 1.6 0.00 0.00 0.00 72 985.0
20260902103807 12 193 0.0 1.6 0.00 0.00 0.00 76 985.0
20260902102702 12 148 0.0 0.0 0.00 0.00 0.00 77 984.8
20260902102201 11 148 0.0 0.0 0.00 0.00 0.00 78 984.8
20260902101701 11 148 0.0 0.0 0.00 0.00 0.00 77 984.8
20260902101202 12 148 0.0 0.0 0.00 0.00 0.00 76 984.8
20260902100701 12 148 0.0 0.0 0.00 0.00 0.00 76 984.8
20260902100202 12 148 0.0 0.0 0.00 0.00 0.00 76 984.8
20260902095702 12 148 0.0 0.0 0.00 0.00 0.00 76 984.8
20260902095202 12 148 0.0 0.0 0.00 0.00 0.00 76 984.7
20260902094702 12 148 0.0 0.0 0.00 0.00 0.00 76 984.7
20260902094201 12 148 0.0 0.0 0.00 0.00 0.00 76 984.8
20260902093710 12 148 0.0 0.0 0.00 0.00 0.00 75 984.8
20260902093706 12 148 0.0 0.0 0.00 0.00 0.00 75 984.8
20260902092701 12 142 0.0 0.0 0.00 0.00 0.00 74 984.8
20260902092201 12 142 0.0 0.0 0.00 0.00 0.00 73 985.0
20260902091701 12 142 0.0 0.0 0.00 0.00 0.00 74 985.0
20260902091201 12 142 0.0 0.0 0.00 0.00 0.00 74 984.8
20260902090701 12 142 0.0 0.0 0.00 0.00 0.00 74 985.0
20260902090203 12 142 0.0 0.0 0.00 0.00 0.00 73 985.0
20260902085700 13 142 0.0 0.0 0.00 0.00 0.00 72 985.0
20260902085202 13 134 0.0 0.0 0.00 0.00 0.00 71 985.0
20260902084702 13 134 0.0 0.0 0.00 0.00 0.00 71 984.8
20260902084201 13 134 0.0 0.0 0.00 0.00 0.00 72 984.8
20260902083705 13 134 0.0 0.0 0.00 0.00 0.00 72 985.0
20260902083701 13 135 0.0 0.0 0.00 0.00 0.00 71 985.0
20260902082659 13 135 0.0 0.0 0.00 0.00 0.00 70 985.0
20260902082159 14 135 0.0 0.0 0.00 0.00 0.00 69 985.0
20260902081659 14 135 0.0 0.0 0.00 0.00 0.00 68 985.0
20260902081200 14 164 0.0 0.0 0.00 0.00 0.00 69 985.0
20260902080701 14 164 0.0 1.6 0.00 0.00 0.00 69 985.1
20260902080203 15 155 0.0 0.0 0.00 0.00 0.00 67 985.2
20260902080159 14 164 0.0 1.6 0.00 0.00 0.00 69 985.2
20260902075806 15 154 0.0 1.6 0.00 0.00 0.00 68 985.3